| time (UTC) | temp F | wind direction | speed MPH | gust MPH | rain 1hr in | rain 24hr in | rain mn in | humidity % | barometer mb |
| 20260503204555 | 55 | 306 | 8.0 | 20.0 | 0.00 | 0.00 | 0.00 | 37 | 1011.4 |
| 20260503203056 | 55 | 312 | 9.0 | 15.0 | 0.00 | 0.00 | 0.00 | 37 | 1011.5 |
| 20260503201552 | 54 | 322 | 7.0 | 14.0 | 0.00 | 0.00 | 0.00 | 38 | 1011.4 |
| 20260503200054 | 55 | 297 | 10.0 | 17.0 | 0.00 | 0.00 | 0.00 | 38 | 1011.6 |
| 20260503194555 | 54 | 299 | 4.0 | 13.0 | 0.00 | 0.00 | 0.00 | 41 | 1012.0 |
| 20260503193044 | 53 | 312 | 10.0 | 16.0 | 0.00 | 0.00 | 0.00 | 40 | 1012.3 |
| 20260503191544 | 53 | 315 | 8.0 | 18.0 | 0.00 | 0.00 | 0.00 | 40 | 1012.4 |
| 20260503190043 | 54 | 306 | 8.0 | 16.0 | 0.00 | 0.00 | 0.00 | 40 | 1012.5 |
| 20260503184541 | 53 | 304 | 8.0 | 19.0 | 0.00 | 0.00 | 0.00 | 38 | 1012.5 |
| 20260503183038 | 54 | 338 | 6.0 | 19.0 | 0.00 | 0.00 | 0.00 | 40 | 1012.6 |
| 20260503181536 | 53 | 306 | 8.0 | 14.0 | 0.00 | 0.00 | 0.00 | 40 | 1012.7 |
| 20260503180035 | 52 | 301 | 10.0 | 16.0 | 0.00 | 0.00 | 0.00 | 39 | 1013.0 |
| 20260503174534 | 53 | 336 | 8.0 | 14.0 | 0.00 | 0.00 | 0.00 | 41 | 1013.0 |
| 20260503173037 | 53 | 340 | 10.0 | 21.0 | 0.00 | 0.00 | 0.00 | 39 | 1013.0 |
| 20260503171535 | 51 | 307 | 7.0 | 16.0 | 0.00 | 0.00 | 0.00 | 39 | 1013.1 |
| 20260503081525 | 36 | 313 | 0.0 | 4.0 | 0.00 | 0.00 | 0.00 | 76 | 1014.2 |
| 20260503071522 | 36 | 298 | 2.0 | 6.0 | 0.00 | 0.00 | 0.00 | 75 | 1014.0 |
| 20260503054512 | 37 | 318 | 0.0 | 0.0 | 0.00 | 0.00 | 0.00 | 73 | 1014.3 |
| 20260503053012 | 37 | 318 | 0.0 | 4.0 | 0.00 | 0.00 | 0.00 | 73 | 1014.3 |
| 20260503051511 | 38 | 318 | 0.0 | 0.0 | 0.00 | 0.00 | 0.00 | 73 | 1014.5 |
| 20260503050022 | 38 | 318 | 0.0 | 0.0 | 0.00 | 0.00 | 0.00 | 73 | 1014.6 |
| 20260503044517 | 39 | 318 | 0.0 | 0.0 | 0.00 | 0.00 | 0.00 | 71 | 1014.6 |
| 20260503043012 | 39 | 318 | 0.0 | 0.0 | 0.00 | 0.00 | 0.00 | 73 | 1014.7 |
| 20260503041512 | 38 | 318 | 0.0 | 0.0 | 0.00 | 0.00 | 0.00 | 73 | 1014.8 |
| 20260503040011 | 38 | 318 | 0.0 | 0.0 | 0.00 | 0.00 | 0.00 | 71 | 1014.9 |
| 20260503034511 | 38 | 318 | 0.0 | 0.0 | 0.00 | 0.00 | 0.00 | 70 | 1014.9 |
| 20260503033010 | 38 | 321 | 4.0 | 7.0 | 0.00 | 0.00 | 0.00 | 69 | 1014.8 |
| 20260503031510 | 39 | 304 | 3.0 | 8.0 | 0.00 | 0.00 | 0.00 | 69 | 1014.8 |
| 20260503030009 | 39 | 349 | 3.0 | 8.0 | 0.00 | 0.00 | 0.00 | 69 | 1014.9 |
| 20260503024508 | 39 | 349 | 3.0 | 6.0 | 0.00 | 0.00 | 0.00 | 68 | 1015.0 |
| 20260503023008 | 39 | 349 | 4.0 | 7.0 | 0.00 | 0.00 | 0.00 | 67 | 1015.0 |
| 20260503021518 | 40 | 346 | 3.0 | 8.0 | 0.00 | 0.00 | 0.00 | 66 | 1015.0 |
| 20260503020008 | 40 | 342 | 6.0 | 10.0 | 0.00 | 0.00 | 0.00 | 64 | 1014.9 |
| 20260503014507 | 41 | 355 | 3.0 | 8.0 | 0.00 | 0.00 | 0.00 | 62 | 1014.9 |
| 20260503013008 | 41 | 317 | 5.0 | 11.0 | 0.00 | 0.00 | 0.00 | 57 | 1014.8 |
| 20260503011508 | 41 | 298 | 5.0 | 9.0 | 0.00 | 0.00 | 0.00 | 55 | 1014.6 |
| 20260503010007 | 42 | 326 | 5.0 | 12.0 | 0.00 | 0.09 | 0.00 | 54 | 1014.4 |
| 20260503004505 | 42 | 323 | 6.0 | 10.0 | 0.00 | 0.09 | 0.00 | 54 | 1014.2 |
| 20260503003005 | 42 | 326 | 0.0 | 1.0 | 0.00 | 0.09 | 0.00 | 55 | 1014.1 |
| 20260503001511 | 42 | 326 | 0.0 | 0.0 | 0.00 | 0.09 | 0.00 | 55 | 1014.0 |
| 20260503000006 | 43 | 326 | 1.0 | 6.0 | 0.00 | 0.13 | 0.00 | 54 | 1014.0 |
| 20260502234505 | 43 | 309 | 5.0 | 9.0 | 0.00 | 0.13 | 0.00 | 54 | 1013.8 |
| 20260502233005 | 43 | 310 | 6.0 | 9.0 | 0.00 | 0.13 | 0.00 | 54 | 1013.7 |
| 20260502231505 | 43 | 303 | 2.0 | 8.0 | 0.00 | 0.13 | 0.00 | 55 | 1013.6 |
| 20260502230012 | 44 | 341 | 0.0 | 9.0 | 0.00 | 0.14 | 0.00 | 56 | 1013.5 |
| 20260502224506 | 44 | 348 | 4.0 | 9.0 | 0.00 | 0.14 | 0.00 | 55 | 1013.4 |
| 20260502223004 | 45 | 342 | 5.0 | 10.0 | 0.00 | 0.14 | 0.00 | 56 | 1013.3 |
| 20260502221503 | 45 | 336 | 3.0 | 5.0 | 0.00 | 0.14 | 0.00 | 55 | 1013.4 |
| 20260502220004 | 45 | 336 | 0.0 | 5.0 | 0.00 | 0.15 | 0.00 | 57 | 1013.5 |
| 20260502214504 | 45 | 313 | 3.0 | 6.0 | 0.00 | 0.15 | 0.00 | 56 | 1013.4 |
| 20260502213003 | 46 | 336 | 1.0 | 6.0 | 0.00 | 0.15 | 0.00 | 55 | 1013.4 |
| 20260502211507 | 45 | 335 | 3.0 | 9.0 | 0.00 | 0.15 | 0.00 | 56 | 1013.3 |
| 20260502210005 | 44 | 306 | 5.0 | 11.0 | 0.00 | 0.18 | 0.00 | 57 | 1013.2 |